GW4309 Weather Reports


time (UTC)temp
C
wind
direction
speed
KPH
gust
KPH
rain 1hr
cm
rain 24hr
cm
rain mn
cm
humidity
%
barometer
mb
20260504231925 18 245 0.0 0.0 0.00 0.00 0.00 41 1003.8
20260504231421 18 245 0.0 0.0 0.00 0.00 0.00 44 1003.6
20260504230917 18 255 0.0 0.0 0.00 0.00 0.00 43 1003.6
20260504230415 19 236 0.0 0.0 0.00 0.00 0.00 43 1003.5
20260504225913 19 250 0.0 0.0 0.00 0.00 0.00 40 1003.4
20260504225410 19 263 1.6 1.6 0.00 0.00 0.00 39 1003.4
20260504224907 20 245 0.0 0.0 0.00 0.00 0.00 43 1003.1
20260504224403 20 236 0.0 0.0 0.00 0.00 0.00 38 1003.1
20260504223901 20 248 0.0 0.0 0.00 0.00 0.00 39 1003.1
20260504223356 20 246 3.2 3.2 0.00 0.00 0.00 38 1003.0
20260504222852 20 251 0.0 1.6 0.00 0.00 0.00 38 1003.2
20260504222349 20 264 3.2 3.2 0.00 0.00 0.00 38 1003.3
20260504221848 20 227 1.6 1.6 0.00 0.00 0.00 38 1003.4
20260504221344 20 231 1.6 1.6 0.00 0.00 0.00 38 1003.2
20260504220842 20 236 1.6 1.6 0.00 0.00 0.00 38 1003.1
20260504220338 20 254 1.6 3.2 0.00 0.00 0.00 37 1003.2
20260504215835 20 240 1.6 1.6 0.00 0.00 0.00 38 1003.2
20260504215331 20 228 3.2 3.2 0.00 0.00 0.00 38 1003.1
20260504214828 20 269 1.6 3.2 0.00 0.00 0.00 37 1003.3
20260504214325 20 269 4.8 9.7 0.00 0.00 0.00 36 1003.1
20260504213821 21 196 3.2 3.2 0.00 0.00 0.00 36 1003.3
20260504213317 21 269 4.8 4.8 0.00 0.00 0.00 36 1003.2
20260504212815 21 253 4.8 4.8 0.00 0.00 0.00 37 1003.1
20260504212311 20 223 6.4 8.0 0.00 0.00 0.00 38 1003.2
20260504211809 20 253 0.0 0.0 0.00 0.00 0.00 39 1003.3
20260504211304 21 292 1.6 1.6 0.00 0.00 0.00 38 1003.1
20260504210802 20 251 4.8 8.0 0.00 0.00 0.00 37 1003.1
20260504210259 20 279 0.0 1.6 0.00 0.00 0.00 42 1003.2
20260504205756 20 256 0.0 1.6 0.00 0.00 0.00 41 1003.0
20260504205254 19 246 1.6 1.6 0.00 0.00 0.00 41 1003.0
20260504204752 19 258 3.2 3.2 0.00 0.00 0.00 43 1003.0
20260504204250 20 304 4.8 4.8 0.00 0.00 0.00 40 1003.0
20260504203749 20 280 1.6 3.2 0.00 0.00 0.00 39 1003.1
20260504203246 20 251 1.6 3.2 0.00 0.00 0.00 40 1003.0
20260504202741 20 232 4.8 4.8 0.00 0.00 0.00 40 1003.2
20260504202239 20 245 3.2 3.2 0.00 0.00 0.00 40 1002.9
20260504201736 20 229 4.8 4.8 0.00 0.00 0.00 40 1003.1
20260504201233 20 235 9.7 12.9 0.00 0.00 0.00 40 1003.1
20260504200731 20 279 8.0 11.3 0.00 0.00 0.00 40 1003.3
20260504200226 20 290 6.4 9.7 0.00 0.00 0.00 41 1003.2
20260504195723 19 263 8.0 11.3 0.00 0.00 0.00 41 1003.4
20260504195219 20 285 4.8 8.0 0.00 0.00 0.00 42 1003.4
20260504194716 19 231 6.4 8.0 0.00 0.00 0.00 42 1003.5
20260504194212 18 269 4.8 4.8 0.00 0.00 0.00 44 1003.7
20260504193708 18 252 8.0 12.9 0.00 0.00 0.00 43 1003.4
20260504193206 18 219 3.2 3.2 0.00 0.00 0.00 45 1003.5
20260504192704 18 297 3.2 3.2 0.00 0.00 0.00 45 1003.6
20260504192202 18 243 3.2 3.2 0.00 0.00 0.00 45 1003.7
20260504191701 18 185 3.2 4.8 0.00 0.00 0.00 45 1003.6
20260504191156 18 250 1.6 1.6 0.00 0.00 0.00 46 1003.6
20260504190652 17 250 1.6 1.6 0.00 0.00 0.00 48 1003.7
20260504190149 17 280 3.2 3.2 0.00 0.00 0.00 48 1003.6
20260504185645 17 307 4.8 8.0 0.00 0.00 0.00 47 1003.9
20260504185142 17 262 3.2 3.2 0.00 0.00 0.00 48 1003.7
20260504184638 17 270 8.0 9.7 0.00 0.00 0.00 49 1004.0
20260504184132 17 276 4.8 4.8 0.00 0.00 0.00 48 1004.2
20260504183630 17 274 8.0 11.3 0.00 0.00 0.00 50 1004.0
20260504183127 16 265 3.2 3.2 0.00 0.00 0.00 51 1003.9
20260504182625 16 296 1.6 1.6 0.00 0.00 0.00 51 1004.1
20260504182122 16 251 1.6 1.6 0.00 0.00 0.00 52 1004.3
20260504181620 16 292 3.2 3.2 0.00 0.00 0.00 52 1004.3
20260504181117 16 271 0.0 1.6 0.00 0.00 0.00 52 1004.6
20260504180616 16 288 3.2 4.8 0.00 0.00 0.00 52 1004.5
20260504180115 16 281 4.8 4.8 0.00 0.00 0.00 52 1004.3
20260504175611 16 248 1.6 1.6 0.00 0.00 0.00 52 1004.5
20260504175108 16 265 3.2 3.2 0.00 0.00 0.00 51 1004.3
20260504174606 16 253 0.0 0.0 0.00 0.00 0.00 51 1004.3
20260504174102 16 304 1.6 3.2 0.00 0.00 0.00 50 1004.5
20260504173559 16 292 1.6 3.2 0.00 0.00 0.00 49 1004.3
20260504173057 16 225 4.8 4.8 0.00 0.00 0.00 49 1004.5
20260504172553 16 267 3.2 4.8 0.00 0.00 0.00 48 1004.5
20260504172050 16 213 3.2 4.8 0.00 0.00 0.00 48 1004.5
20260504171546 16 330 6.4 9.7 0.00 0.00 0.00 47 1004.6
20260504171043 16 291 0.0 1.6 0.00 0.00 0.00 47 1004.2
20260504170539 16 253 4.8 9.7 0.00 0.00 0.00 46 1004.1
20260504150923 15 238 3.2 3.2 0.00 0.00 0.00 51 1004.0
20260504150420 15 233 4.8 8.0 0.00 0.00 0.00 51 1004.6
20260504140846 13 196 4.8 4.8 0.00 0.00 0.00 59 1005.3
20260504140342 12 228 4.8 8.0 0.00 0.00 0.00 60 1005.4
20260504130811 11 247 0.0 1.6 0.00 0.00 0.00 65 1005.9
20260504130307 11 196 3.2 3.2 0.00 0.00 0.00 64 1005.9
20260504120231 9 228 4.8 4.8 0.00 0.00 0.00 66 1006.6
20260504110658 2 247 3.2 3.2 0.00 0.00 0.00 91 1006.6
20260504110154 1 247 0.0 0.0 0.00 0.00 0.00 93 1006.6
20260504100119 0 330 3.2 3.2 0.00 0.00 0.00 93 1006.7
20260504081512 -1 270 0.0 0.0 0.00 0.00 0.00 95 1006.7
20260504081007 -1 270 0.0 0.0 0.00 0.00 0.00 95 1006.7
20260504080504 -1 270 0.0 0.0 0.00 0.00 0.00 95 1006.7
20260504050317 -1 246 0.0 0.0 0.00 0.00 0.00 94 1006.1
20260504045814 -1 245 0.0 0.0 0.00 0.00 0.00 94 1006.4
20260504045314 -1 250 0.0 0.0 0.00 0.00 0.00 93 1006.2
20260504044811 -1 250 0.0 0.0 0.00 0.00 0.00 93 1006.3
20260504044309 -1 249 0.0 0.0 0.00 0.00 0.00 93 1006.3
20260504043806 -1 266 0.0 0.0 0.00 0.00 0.00 92 1006.2
20260504043303 -1 254 0.0 0.0 0.00 0.00 0.00 92 1006.3
20260504042801 0 264 0.0 0.0 0.00 0.00 0.00 92 1006.3
20260504042257 0 260 0.0 0.0 0.00 0.00 0.00 92 1006.3
20260504041753 0 251 0.0 0.0 0.00 0.00 0.00 92 1006.4
20260504041249 0 260 0.0 0.0 0.00 0.00 0.00 92 1006.2
20260504040745 0 260 0.0 0.0 0.00 0.00 0.00 92 1006.0
20260504040243 0 260 0.0 0.0 0.00 0.00 0.00 91 1006.2
20260504035739 0 250 0.0 0.0 0.00 0.03 0.03 91 1006.1
20260504035236 0 264 0.0 0.0 0.00 0.03 0.03 91 1006.1
20260504034734 0 239 0.0 0.0 0.00 0.03 0.03 91 1006.1
20260504034231 0 250 0.0 0.0 0.00 0.03 0.03 91 1005.9
20260504033728 0 249 0.0 0.0 0.00 0.03 0.03 90 1006.0
20260504033226 0 243 0.0 0.0 0.00 0.03 0.03 90 1006.0
20260504032723 0 250 0.0 0.0 0.00 0.03 0.03 90 1005.8
20260504032220 0 250 0.0 0.0 0.00 0.03 0.03 90 1006.0
20260504031716 1 250 0.0 0.0 0.00 0.03 0.03 89 1006.1
20260504031214 1 247 0.0 0.0 0.00 0.03 0.03 89 1006.2
20260504030710 1 247 0.0 0.0 0.00 0.03 0.03 88 1005.9
20260504030207 1 235 0.0 0.0 0.00 0.03 0.03 88 1005.9
20260504025703 1 262 0.0 0.0 0.00 0.03 0.03 87 1006.0
20260504025200 1 250 0.0 0.0 0.00 0.03 0.03 87 1006.0
20260504024658 1 254 0.0 0.0 0.00 0.03 0.03 87 1006.0
20260504024153 1 253 0.0 0.0 0.00 0.03 0.03 87 1005.9
20260504023650 2 254 0.0 0.0 0.00 0.03 0.03 85 1005.9
20260504023147 2 260 0.0 0.0 0.00 0.03 0.03 84 1006.3
20260504022643 2 248 0.0 0.0 0.00 0.03 0.03 84 1006.3
20260504022138 2 248 0.0 0.0 0.00 0.03 0.03 83 1005.9
20260504021637 2 247 0.0 0.0 0.00 0.03 0.03 83 1006.0
20260504021133 2 247 0.0 0.0 0.00 0.03 0.03 81 1006.0
20260504020630 3 246 0.0 0.0 0.00 0.03 0.03 79 1006.0
20260504020126 3 263 0.0 0.0 0.00 0.03 0.03 79 1005.7
20260504015623 3 250 0.0 0.0 0.00 0.03 0.03 80 1006.0
20260504015120 3 247 0.0 0.0 0.00 0.03 0.03 79 1006.0
20260504014615 3 249 0.0 0.0 0.00 0.03 0.03 79 1005.9
20260504014113 4 249 0.0 0.0 0.00 0.03 0.03 79 1006.0
20260504013610 4 262 0.0 0.0 0.00 0.03 0.03 77 1006.0
20260504013107 4 250 0.0 0.0 0.00 0.03 0.03 76 1005.8
20260504012604 4 259 0.0 0.0 0.00 0.03 0.03 72 1006.1
20260504012102 4 245 0.0 0.0 0.00 0.03 0.03 72 1005.9
20260504011559 5 253 0.0 0.0 0.00 0.03 0.03 74 1005.6
20260504011055 5 254 0.0 0.0 0.00 0.03 0.03 72 1005.9
20260504010550 5 254 0.0 0.0 0.00 0.03 0.03 71 1005.6
20260504010047 5 254 0.0 0.0 0.00 0.03 0.03 67 1005.8
20260504005544 5 255 0.0 0.0 0.00 0.03 0.03 65 1005.5
20260504005041 6 244 0.0 0.0 0.00 0.03 0.03 67 1005.5
20260504004539 6 254 0.0 0.0 0.00 0.03 0.03 64 1005.3
20260504004036 7 259 0.0 0.0 0.00 0.03 0.03 59 1005.2
20260504003532 7 264 0.0 0.0 0.00 0.03 0.03 56 1005.3
20260504003029 7 261 0.0 0.0 0.00 0.03 0.03 56 1005.2
20260504002526 7 267 0.0 0.0 0.00 0.03 0.03 55 1005.1
20260504002023 7 263 0.0 1.6 0.00 0.03 0.03 54 1005.4
20260504001521 7 259 0.0 0.0 0.00 0.03 0.03 54 1004.8
20260504001017 7 290 1.6 1.6 0.00 0.03 0.03 53 1004.9
20260504000514 7 245 0.0 0.0 0.00 0.03 0.03 55 1005.1
20260504000011 7 296 4.8 8.0 0.00 0.03 0.03 53 1004.9
20260503235509 7 286 1.6 3.2 0.00 0.03 0.03 53 1004.8
20260503235006 8 263 0.0 0.0 0.00 0.03 0.03 54 1004.9
20260503234503 8 263 0.0 1.6 0.00 0.03 0.03 53 1004.6
20260503234002 8 282 1.6 1.6 0.00 0.03 0.03 52 1004.8
20260503233457 8 245 4.8 8.0 0.00 0.03 0.03 54 1004.6
20260503232954 8 285 1.6 1.6 0.00 0.03 0.03 52 1004.3
20260503232451 8 302 6.4 9.7 0.00 0.03 0.03 51 1004.5